x

9432780 - Charleston, Or (chao3) Weather Station

12:36pm - Fri 26th Dec 2014 All times are PST. -8 hours from GMT.

  • Wind
    2mph, 5mph gusts
  • Sea Temp 55°f
  • Sea Pressure 1027.8mb
  • 9432780 - Charleston, Or
  • 9432780 - Charleston, Or

More Historic Weather Station data

Upgrade to MSW Pro to gain access to the past 30 days of data for over 8000 Wavebouys and Weather Stations around the globe.

Join Pro

Comparision Forecast

View Surf forecast
   
Fri 12/26 12:36pm 2 5 mph 1027.8mb 55f
12:30pm 1 6 mph 1027.8mb 55f
12:24pm 2 5 mph 1027.7mb 54f
12:18pm 2 7 mph 1027.8mb 54f
12:12pm 2 5 mph 1028mb 54f
12:06pm 3 6 mph 1028.1mb 54f
12:00pm 2 6 mph 1028.1mb 54f
11:36am 2 6 mph 1028.4mb 54f
11:30am 2 5 mph 1028.5mb 53f
11:24am 2 6 mph 1028.6mb 53f
11:18am 2 5 mph 1028.6mb 53f
11:12am 2 7 mph 1028.6mb 53f
11:06am 2 8 mph 1028.6mb 54f
11:00am 2 6 mph 1028.7mb 54f
10:36am 3 9 mph 1028.9mb 54f
10:30am 3 9 mph 1028.9mb 54f
10:24am 3 7 mph 1028.8mb 54f
10:18am 3 9 mph 1028.8mb 54f
10:12am 2 8 mph 1028.7mb 54f
10:06am 2 8 mph 1028.7mb 54f
10:00am 5 8 mph 1028.8mb 55f
9:36am 3 6 mph 1028.6mb 55f
9:30am 3 7 mph 1028.6mb 55f
9:24am 3 7 mph 1028.5mb 55f
9:18am 2 7 mph 1028.5mb 55f
9:12am 2 7 mph 1028.5mb 55f
9:06am 2 8 mph 1028.4mb 55f
9:00am 5 7 mph 1028.3mb 55f
8:36am 3 7 mph 1028mb 55f
8:30am 2 8 mph 1028mb 55f
8:24am 2 6 mph 1028mb 55f
8:18am 3 7 mph 1028mb 55f
8:12am 2 6 mph 1028mb 56f
8:06am 3 6 mph 1028mb 56f
8:00am 5 8 mph 1028mb 56f
7:36am 3 8 mph 1027.9mb 56f
7:30am 3 7 mph 1027.8mb 56f
7:24am 3 6 mph 1027.8mb 56f
7:18am 2 6 mph 1027.8mb 56f
7:12am 3 7 mph 1027.8mb 56f
7:06am 5 8 mph 1027.8mb 56f
7:00am 3 8 mph 1027.8mb 56f
6:36am 5 9 mph 1027.8mb 56f
6:30am 5 8 mph 1027.8mb 56f
6:24am 5 8 mph 1027.7mb 56f
6:18am 5 8 mph 1027.7mb 56f
6:12am 3 7 mph 1027.8mb 56f
6:06am 3 6 mph 1027.8mb 56f
6:00am 3 8 mph 1027.8mb 56f
5:36am 5 8 mph - -
5:30am 1 8 mph 1027.6mb 57f
5:24am 3 7 mph 1027.5mb 57f
5:18am 5 8 mph 1027.4mb 57f
5:12am 3 8 mph 1027.3mb 57f
5:06am 3 7 mph 1027.3mb 57f
5:00am 5 7 mph 1027.3mb 57f
4:36am 6 8 mph 1027.4mb 57f
4:30am 3 8 mph 1027.3mb 57f
4:24am 5 8 mph 1027.3mb 57f
4:18am 5 8 mph 1027.2mb 57f
4:12am 6 10 mph 1027.2mb 57f
4:06am 5 10 mph 1027.2mb 57f
4:00am 3 9 mph 1027.2mb 57f
3:36am 3 8 mph 1027.2mb 57f
3:30am 3 9 mph 1027.2mb 57f
3:24am 3 7 mph 1027.2mb 57f
3:18am 2 6 mph 1027.3mb 57f
3:12am 3 7 mph 1027.3mb 57f
3:06am 5 7 mph 1027.4mb 57f
3:00am 3 8 mph 1027.4mb 57f
2:36am 3 10 mph 1027.2mb 57f
2:30am 3 10 mph 1027.2mb 57f
2:24am 3 9 mph 1027.1mb 57f
2:18am 3 9 mph 1027.1mb 57f
2:12am 5 10 mph 1027mb 57f
2:06am 3 9 mph 1026.9mb 57f
2:00am 3 8 mph 1026.9mb 57f
1:36am 5 7 mph 1026.9mb 57f
1:30am 3 6 mph 1026.9mb 57f
1:24am 3 6 mph 1026.9mb 57f
1:18am 3 6 mph 1026.8mb 57f
1:12am 3 6 mph 1026.9mb 57f
1:06am 2 6 mph 1026.8mb 57f
1:00am 3 9 mph 1026.8mb 56f
12:36am 3 9 mph 1026.8mb 55f
12:30am 5 8 mph 1026.8mb 55f
12:24am 2 7 mph 1026.8mb 55f
12:18am 3 8 mph 1026.9mb 55f
12:12am 3 8 mph 1026.9mb 55f
12:06am 3 6 mph 1026.9mb 54f
12:00am 3 8 mph 1027mb 54f
Thu 12/25 11:36pm 3 7 mph 1027.2mb 53f
11:30pm 3 7 mph 1027.2mb 53f
11:24pm 3 7 mph 1027.2mb 53f
11:18pm 5 10 mph 1027.2mb 53f
11:12pm 6 7 mph 1027.2mb 53f
11:06pm 5 9 mph 1027.2mb 53f
11:00pm 3 8 mph 1027.2mb 53f
10:36pm 3 8 mph 1027.2mb 53f
10:30pm 3 7 mph 1027.1mb 53f
10:24pm 3 9 mph 1027.1mb 53f
10:18pm 5 7 mph 1027mb 53f
10:12pm 3 7 mph 1027mb 53f
10:06pm 5 9 mph 1027mb 53f
10:00pm 3 7 mph 1027mb 53f
9:36pm 3 8 mph 1027mb 54f
9:30pm 3 9 mph 1027mb 54f
9:24pm 3 6 mph 1026.9mb 55f
9:18pm 3 6 mph 1027mb 55f
9:12pm 2 5 mph 1027mb 55f
9:06pm 3 5 mph 1027mb 55f
9:00pm 3 7 mph 1027.1mb 55f
8:36pm 2 6 mph 1027.1mb 55f
8:30pm 3 5 mph 1027.1mb 55f
8:24pm 2 3 mph 1027.1mb 55f
8:18pm 3 7 mph 1027.1mb 55f
8:12pm 3 5 mph - -
8:06pm 3 8 mph 1027mb 55f
8:00pm 3 6 mph 1027mb 55f
7:36pm 5 7 mph 1027mb 55f
7:30pm 6 8 mph 1027.1mb 55f
7:24pm 2 9 mph 1027.1mb 55f
7:18pm 5 7 mph 1027mb 55f
7:12pm 3 5 mph 1027mb 55f
7:06pm 3 6 mph 1026.9mb 55f
7:00pm 3 5 mph 1026.9mb 56f
6:36pm 3 7 mph 1026.7mb 56f
6:30pm 2 5 mph 1026.7mb 56f
6:24pm 3 5 mph 1026.7mb 56f
6:18pm 1 3 mph 1026.7mb 56f
6:12pm 1 2 mph 1026.7mb 56f
6:06pm  -  1 mph 1026.7mb 56f
6:00pm  -  1 mph 1026.6mb 56f
5:36pm 2 3 mph 1026.5mb 56f
5:30pm 2 3 mph 1026.5mb 56f
5:24pm 2 3 mph 1026.5mb 56f
5:18pm 2 3 mph 1026.5mb 56f
5:12pm 2 5 mph 1026.5mb 56f
5:06pm 2 5 mph 1026.5mb 56f
5:00pm 2 3 mph 1026.4mb 56f
4:36pm  -  3 mph 1026.2mb 56f
4:30pm 1 6 mph 1026.2mb 56f
4:24pm 5 6 mph 1026.1mb 56f
4:18pm 3 6 mph 1026.2mb 56f
4:12pm 2 5 mph 1026.2mb 56f
4:06pm 2 5 mph 1026.2mb 57f
4:00pm 3 6 mph 1026.2mb 57f
3:36pm 9 10 mph 1026.3mb 57f
3:30pm 9 10 mph 1026.3mb 57f
3:24pm 10 13 mph 1026.2mb 57f
3:18pm 11 14 mph 1026.1mb 57f
3:12pm 11 14 mph 1026.1mb 57f
3:06pm 14 21 mph 1026mb 57f
3:00pm 18 22 mph 1026mb 57f
2:36pm 13 17 mph 1025.6mb 57f
2:30pm 15 20 mph 1025.5mb 57f
2:24pm 13 17 mph - -
2:18pm 9 20 mph 1025.4mb 57f
2:12pm 14 18 mph 1025.4mb 57f
2:06pm 14 18 mph 1025.4mb 57f
2:00pm 14 18 mph 1025.3mb 57f
1:36pm 14 16 mph 1025.4mb 57f
1:30pm 7 15 mph 1025.4mb 57f
1:24pm 8 11 mph 1025.4mb 57f
1:18pm 7 9 mph 1025.4mb 57f
1:12pm 5 10 mph - -
1:06pm 9 10 mph 1025.6mb 57f
1:00pm 5 8 mph 1025.7mb 57f
12:54pm 6 7 mph 1025.7mb 57f
12:48pm 6 9 mph 1025.7mb 57f
12:36pm 9 11 mph 1025.9mb 57f
12:30pm 7 9 mph 1025.9mb 57f
12:24pm 5 8 mph - -
12:18pm 5 7 mph 1025.9mb 57f
12:12pm 5 6 mph 1026mb 57f
12:06pm 3 7 mph 1026mb 56f
12:00pm 2 7 mph 1026.1mb 56f
11:54am 5 7 mph 1026.1mb 56f
11:48am 3 5 mph 1026.2mb 56f
11:36am 5 7 mph 1026.2mb 55f
11:30am 3 5 mph 1026.2mb 55f
11:24am 2 5 mph 1026.2mb 54f
11:18am 3 7 mph 1026.2mb 54f
11:12am 3 5 mph 1026.1mb 54f
11:06am  -  6 mph 1026.1mb 53f
11:00am 3 6 mph 1026.2mb 53f
10:54am 2 5 mph 1026.1mb 53f
10:48am 2 5 mph - -
10:36am 5 7 mph 1026.3mb 53f
10:30am 3 6 mph 1026.3mb 53f
10:24am 5 11 mph 1026.2mb 53f
10:18am 3 7 mph 1026.2mb 53f
10:12am 2 5 mph 1026.2mb 53f
10:06am 2 9 mph 1026.4mb 53f
10:00am 6 15 mph 1026.3mb 53f
9:54am 9 16 mph 1026.3mb 53f
9:48am 17 29 mph 1026.3mb 53f
9:36am 10 20 mph 1026.2mb 53f
9:30am 7 18 mph 1026mb 53f
9:24am 16 22 mph 1025.9mb 53f
9:18am 14 22 mph 1025.9mb 53f
9:12am 10 22 mph 1025.7mb 53f
9:06am 20 23 mph 1025.7mb 53f
9:00am 2 8 mph 1025.6mb 53f
8:54am 5 15 mph 1025.7mb 53f
8:48am 9 20 mph 1025.6mb 53f
8:36am 10 16 mph 1025.2mb 54f
8:30am 11 23 mph 1025.2mb 54f
8:24am 16 29 mph 1025mb 54f
8:18am 22 29 mph 1024.9mb 54f
8:12am 15 21 mph 1025mb 55f
8:06am 18 22 mph 1025mb 55f
8:00am 18 23 mph 1025.1mb 55f
7:54am 20 25 mph 1025.1mb 55f
7:48am 23 29 mph 1025mb 55f
7:36am 22 25 mph 1025mb 55f
7:30am 22 25 mph 1025mb 55f
7:24am 22 25 mph 1024.9mb 55f
7:18am 20 25 mph 1024.7mb 55f
7:12am 22 29 mph 1024.8mb 55f
7:06am 25 30 mph 1024.9mb 55f
7:00am 24 29 mph 1025mb 55f
6:54am 16 23 mph 1024.6mb 55f
6:48am 15 21 mph - -
6:36am 22 26 mph 1024.5mb 55f
6:30am 14 22 mph 1024.5mb 55f
6:24am 21 25 mph 1024.5mb 55f
6:18am 22 26 mph 1024.6mb 55f
6:12am 16 24 mph 1024.6mb 55f
6:06am 22 28 mph 1024.7mb 55f
6:00am 22 28 mph 1024.6mb 55f
5:54am 24 28 mph - -
5:48am 20 24 mph 1024.4mb 55f
5:36am 24 28 mph 1024.3mb 55f
5:30am 22 26 mph 1024.4mb 55f
5:24am 13 21 mph 1024.4mb 55f
5:18am 17 21 mph 1024.4mb 55f
5:12am 21 24 mph 1024.5mb 55f
5:06am 11 21 mph 1024.5mb 56f
5:00am 16 24 mph 1024.4mb 56f
4:54am 22 28 mph 1024.3mb 56f
4:48am 13 22 mph 1024.4mb 56f
4:36am 6 11 mph 1024mb 56f
4:30am 5 9 mph 1024.3mb 56f
4:24am 3 7 mph 1024.3mb 56f
4:18am 2 5 mph 1024.4mb 56f
4:12am 3 5 mph - -
4:06am 5 7 mph 1024.4mb 56f
4:00am 6 9 mph 1024.5mb 56f
3:54am 8 14 mph 1024.7mb 56f
3:48am 10 18 mph 1024.7mb 56f
3:36am 17 24 mph 1024.6mb 56f
3:30am 16 25 mph 1024.4mb 56f
3:24am 17 28 mph 1024.2mb 56f
3:18am 9 13 mph 1024.1mb 56f
3:12am 9 13 mph 1024.1mb 56f
3:06am 11 14 mph 1024.1mb 56f
3:00am 8 11 mph 1024.1mb 56f
2:54am 9 14 mph 1024.2mb 56f
2:48am 11 23 mph 1024.2mb 56f
2:36am 21 26 mph 1024.2mb 56f
2:30am 18 25 mph 1024mb 56f
2:24am 18 29 mph 1023.9mb 56f
2:18am 28 33 mph 1023.8mb 56f
2:12am 17 22 mph 1023.7mb 56f
2:06am 13 24 mph 1023.6mb 56f
2:00am 20 24 mph 1023.4mb 56f
1:54am 23 32 mph 1023.2mb 56f
1:48am 29 33 mph 1023.1mb 56f
1:36am 24 29 mph 1023mb 56f
1:30am 21 24 mph 1023mb 56f
1:24am 18 24 mph 1023mb 56f
1:18am 21 26 mph 1023mb 56f
1:12am 22 26 mph 1023mb 56f
1:06am 22 28 mph 1023mb 56f
1:00am 25 30 mph 1022.9mb 56f
12:54am 25 32 mph 1022.9mb 56f
12:48am 24 28 mph 1022.9mb 56f
12:36am 25 30 mph 1023mb 56f
12:30am 21 23 mph 1022.9mb 56f
12:24am 11 17 mph 1023.1mb 56f
12:18am 13 18 mph 1023.2mb 56f
12:12am 13 18 mph 1023.4mb 56f
12:06am 13 25 mph 1023.4mb 56f
12:00am 20 32 mph 1023.2mb 56f
Wed 12/24 11:54pm 13 21 mph 1023mb 55f
11:48pm 17 20 mph 1023mb 55f
11:36pm 10 16 mph 1023mb 55f
11:30pm 13 20 mph 1023.1mb 54f
11:24pm 10 22 mph 1023.2mb 54f
11:18pm 14 23 mph 1023.1mb 54f
11:12pm 15 29 mph 1023.1mb 53f
11:06pm 24 29 mph 1023.1mb 53f
11:00pm 22 26 mph - -
10:54pm 25 29 mph 1023.1mb 53f
10:48pm 25 29 mph 1023.1mb 53f
10:36pm 29 33 mph 1023.1mb 53f
10:30pm 32 37 mph 1023mb 53f
10:24pm 28 33 mph 1023mb 53f
10:18pm 20 22 mph 1023mb 53f
10:12pm 16 30 mph 1023mb 53f
10:06pm 14 18 mph 1022.9mb 53f
10:00pm 14 18 mph 1022.9mb 53f
9:54pm 11 24 mph 1023mb 53f
9:48pm 25 31 mph 1022.9mb 53f
9:36pm 25 33 mph 1022.7mb 53f
9:30pm 26 31 mph 1022.6mb 53f
9:24pm 24 29 mph 1022.5mb 53f
9:18pm 26 30 mph 1022.4mb 53f
9:12pm 22 30 mph 1022.3mb 53f
9:06pm 24 29 mph 1022.3mb 53f
9:00pm 24 30 mph 1022.3mb 53f
8:54pm 24 31 mph 1022.2mb 53f
8:48pm 25 30 mph 1022.1mb 54f
8:36pm 24 30 mph 1022mb 54f
8:30pm 24 29 mph 1021.9mb 54f
8:24pm 14 21 mph 1021.9mb 54f
8:18pm 10 39 mph 1022mb 55f
8:12pm 21 29 mph - -
8:06pm 17 22 mph 1021.8mb 55f
8:00pm 8 17 mph 1021.9mb 55f
7:54pm 11 17 mph 1021.9mb 55f
7:48pm 15 26 mph 1021.8mb 55f
7:36pm 11 29 mph 1021.6mb 55f
7:30pm 23 30 mph 1021.5mb 55f
7:24pm 32 38 mph 1021.5mb 55f
7:18pm 20 23 mph 1021.5mb 55f
7:12pm 21 25 mph 1021.4mb 55f
7:06pm 23 38 mph 1021.3mb 55f
7:00pm 31 38 mph 1021.1mb 55f
6:54pm 26 33 mph 1021.1mb 55f
6:48pm 29 33 mph 1021.1mb 55f
6:36pm 25 30 mph 1021.1mb 55f
6:30pm 24 32 mph 1021mb 55f
6:24pm 24 32 mph - -
6:18pm 24 37 mph 1020.8mb 55f
6:12pm 26 34 mph 1020.7mb 55f
6:06pm 28 32 mph 1020.6mb 55f
6:00pm 26 36 mph 1020.5mb 55f
5:54pm 30 34 mph 1020.5mb 55f
5:48pm 25 32 mph 1020.4mb 55f
5:36pm 18 36 mph 1020.6mb 56f
5:30pm 29 34 mph 1020.4mb 56f
5:24pm 28 32 mph 1020.4mb 56f
5:18pm 22 30 mph 1020.3mb 56f
5:12pm 25 30 mph 1020.3mb 56f
5:06pm 25 31 mph 1020.3mb 56f
5:00pm 24 32 mph 1020.2mb 56f
4:54pm 26 33 mph 1020.2mb 56f
4:48pm 26 31 mph 1020.1mb 56f
4:36pm 31 37 mph 1020mb 56f
4:30pm 25 30 mph 1019.9mb 56f
4:24pm 29 33 mph - -
4:18pm 29 32 mph 1019.9mb 56f
4:12pm 28 33 mph 1019.9mb 56f
4:06pm 30 36 mph 1019.8mb 56f
4:00pm 31 36 mph 1019.8mb 56f
3:54pm 26 32 mph 1019.7mb 56f
3:48pm 26 32 mph 1019.7mb 56f
3:36pm 32 45 mph 1019.5mb 56f
3:30pm 30 33 mph 1019.5mb 56f
3:24pm 21 25 mph 1019.6mb 56f
3:18pm 16 24 mph 1019.6mb 56f
3:12pm 24 31 mph 1019.6mb 56f
3:06pm 28 33 mph 1019.6mb 56f
3:00pm 25 34 mph 1019.6mb 56f
2:54pm 23 33 mph 1019.4mb 56f
2:48pm 34 40 mph 1019.4mb 56f
2:36pm 24 33 mph 1019.2mb 56f
2:30pm 17 34 mph 1019.2mb 56f
2:24pm 15 23 mph 1019.1mb 56f
2:18pm 7 14 mph 1018.9mb 56f
2:12pm 5 8 mph 1019mb 56f
2:06pm 6 10 mph 1019.1mb 56f
2:00pm 8 14 mph - -
1:54pm 11 17 mph 1019.1mb 56f
1:48pm 14 23 mph - -
1:36pm 28 34 mph 1019mb 56f
1:30pm 25 37 mph 1019mb 57f
1:24pm 3 11 mph 1018.5mb 57f
1:18pm 6 13 mph 1018.4mb 57f
1:12pm 11 16 mph - -
1:06pm 13 20 mph 1018.4mb 57f
1:00pm 17 26 mph - -
12:54pm 26 31 mph 1018.3mb 57f
12:48pm 25 40 mph - -
12:36pm 24 32 mph 1017.9mb 57f
12:30pm 28 33 mph 1017.9mb 57f
12:24pm 29 34 mph 1017.9mb 57f
12:18pm 29 36 mph 1018mb 57f
12:12pm 30 38 mph 1018mb 56f
12:06pm 30 37 mph 1017.9mb 56f
12:00pm 26 32 mph 1017.9mb 56f
11:54am 22 37 mph 1018mb 56f
11:48am 28 39 mph 1018mb 56f
11:36am 24 31 mph 1017.8mb 56f
11:30am 21 36 mph 1017.7mb 56f
11:24am 22 32 mph 1017.7mb 56f
11:18am 23 32 mph 1017.6mb 56f
11:12am 20 33 mph 1017.6mb 56f
11:06am 22 34 mph 1017.6mb 56f
11:00am 28 39 mph 1017.4mb 56f
10:54am 24 37 mph 1017.3mb 56f
10:48am 28 37 mph 1017.4mb 56f
10:36am 32 38 mph - -
10:30am 15 23 mph 1017.2mb 55f
10:24am 15 29 mph 1017mb 55f
10:18am 16 24 mph 1016.9mb 55f
10:12am 17 23 mph - -
10:06am 17 23 mph 1016.6mb 55f
10:00am 16 24 mph 1016.2mb 55f
9:54am 16 22 mph 1016.2mb 55f
9:48am 20 29 mph 1016.2mb 55f
9:36am 18 25 mph 1015.7mb 55f
9:30am 16 29 mph 1015.7mb 55f
9:24am 25 28 mph 1015.5mb 55f
9:18am 20 25 mph 1015.5mb 55f
9:12am 15 24 mph 1015.4mb 55f
9:06am 14 29 mph 1015.2mb 55f
9:00am 23 29 mph - -
8:54am 24 30 mph 1015.1mb 56f
8:48am 25 32 mph 1014.8mb 56f
8:36am 25 32 mph 1014.4mb 56f
8:30am 26 31 mph 1014.3mb 56f
8:24am 21 24 mph 1014.3mb 55f
8:18am 22 28 mph 1014.2mb 55f
8:12am 22 25 mph - -
8:06am 22 28 mph 1013.9mb 56f
8:00am 18 30 mph 1013.8mb 56f
7:54am 23 29 mph - -
7:48am 13 23 mph 1013.5mb 56f
7:36am 10 20 mph 1013.5mb 56f
7:30am 14 22 mph 1013.4mb 56f
7:24am 14 21 mph 1013.4mb 56f
7:18am 13 28 mph 1013.4mb 56f
7:12am 15 29 mph 1013.4mb 56f
7:06am 17 29 mph 1013.3mb 56f
7:00am 17 30 mph 1013.4mb 56f
6:54am 24 36 mph 1013.3mb 56f
6:48am 20 32 mph 1013.3mb 56f
6:36am 18 37 mph 1013.1mb 56f
6:30am 30 39 mph 1013.1mb 56f
6:24am 25 41 mph 1013.2mb 56f
6:18am 32 43 mph 1013.4mb 56f
6:12am 39 46 mph 1013.2mb 56f
6:06am 37 45 mph 1013.1mb 56f
6:00am 31 45 mph 1012.9mb 56f
5:54am 26 41 mph 1012.1mb 56f
5:48am 8 16 mph 1011.2mb 56f
5:36am 3 14 mph 1011.6mb 56f
5:30am 7 14 mph 1011.6mb 56f
5:24am 5 14 mph 1011.8mb 57f
5:18am 6 16 mph 1011.9mb 56f
5:12am 9 17 mph 1012mb 56f
5:06am 6 16 mph - -
5:00am 7 15 mph 1012.3mb 56f
4:54am 6 16 mph 1012.4mb 56f
4:48am 5 15 mph 1012.5mb 56f
4:36am 5 13 mph 1012.7mb 56f
4:30am 5 15 mph 1012.9mb 56f
4:24am 6 11 mph 1013.2mb 57f
4:18am 6 15 mph 1013.6mb 57f
4:12am 6 17 mph 1013.5mb 57f
4:06am 5 18 mph 1013.8mb 57f
4:00am 3 14 mph 1013.8mb 57f
3:54am 2 13 mph 1013.9mb 57f
3:48am 3 14 mph 1013.9mb 57f
3:36am 6 15 mph 1014.2mb 57f
3:30am 7 16 mph 1014.4mb 57f
3:24am 9 16 mph 1014.6mb 57f
3:18am 5 9 mph 1014.7mb 57f
3:12am 6 11 mph 1015mb 57f
3:06am 2 7 mph 1015mb 57f
3:00am 5 9 mph 1015.1mb 57f
2:54am 5 14 mph 1015.3mb 57f
2:48am 3 10 mph 1015.5mb 57f
2:36am 3 10 mph 1015.7mb 57f
2:30am 5 15 mph 1016mb 57f
2:24am 3 9 mph 1016mb 57f
2:18am 6 9 mph 1016mb 57f
2:12am 5 13 mph 1016.1mb 57f
2:06am 2 8 mph 1016.2mb 57f
2:00am 5 11 mph 1016.2mb 57f
1:54am 5 11 mph 1016.8mb 57f
1:48am 3 7 mph 1016.8mb 57f
1:36am 2 7 mph 1017.3mb 57f
1:30am 5 9 mph 1017.2mb 57f
1:24am 5 9 mph 1016.5mb 57f
1:18am 3 9 mph 1017.1mb 57f
1:12am 2 6 mph 1017.6mb 57f
1:06am 2 8 mph 1017.4mb 57f
1:00am 2 9 mph 1017.4mb 57f
12:54am 3 8 mph 1018mb 57f
12:48am 3 9 mph 1018.4mb 57f
12:24am  -  mph 1018.4mb 57f
12:18am  -  mph 1018.5mb 57f
12:12am  -  mph 1018.7mb 57f
12:06am  -  mph 1019mb 57f
12:00am  -  mph 1019.3mb 57f
Tue 12/23 11:54pm  -  mph 1019.2mb 57f
11:48pm  -  mph 1019.4mb 57f
11:36pm 3 9 mph 1019.5mb 57f
11:30pm 1 7 mph 1019.5mb 57f
11:24pm 3 7 mph 1019.6mb 57f
11:18pm 2 8 mph 1019.8mb 57f
11:12pm 2 6 mph 1019.9mb 56f
11:06pm 3 7 mph 1020.1mb 56f
11:00pm 1 3 mph 1020.2mb 56f
10:54pm  -  2 mph 1020.4mb 56f
10:48pm 2 3 mph 1020.5mb 56f
10:36pm 1 6 mph 1020.6mb 55f
10:30pm  -  3 mph 1020.5mb 55f
10:24pm  -  5 mph 1020.6mb 55f
10:18pm 1 3 mph 1020.8mb 55f
10:12pm 1 3 mph 1020.9mb 55f
10:06pm 2 3 mph 1021mb 55f
10:00pm 1 2 mph 1021mb 55f
9:54pm  -  2 mph 1021.1mb 55f
9:48pm  -  2 mph 1021.2mb 55f
9:36pm  -  2 mph 1021.1mb 55f
9:30pm  -  3 mph 1021mb 55f
9:24pm 1 2 mph 1021.1mb 55f
9:18pm  -  3 mph 1021.2mb 55f
9:12pm 2 5 mph 1021.2mb 55f
9:06pm  -  2 mph 1021.2mb 55f
9:00pm 1 3 mph 1021.3mb 55f
8:54pm 1 3 mph 1021.3mb 55f
8:48pm 1 2 mph 1021.4mb 55f
8:36pm 1 3 mph 1021.5mb 55f
8:30pm 2 3 mph 1021.5mb 55f
8:24pm 1 2 mph 1021.5mb 56f
8:18pm  -  1 mph 1021.7mb 56f
8:12pm  -  1 mph 1021.7mb 56f
8:06pm  -  2 mph 1021.7mb 56f
8:00pm 1 2 mph 1021.8mb 56f
7:54pm  -  2 mph 1021.9mb 56f
7:48pm 1 6 mph 1022mb 56f
7:36pm 2 5 mph 1022.1mb 56f
7:30pm 2 5 mph 1022.2mb 56f
7:24pm 2 5 mph 1022.2mb 56f
7:18pm 2 5 mph 1022.3mb 56f
7:12pm 1 3 mph 1022.4mb 56f
7:06pm 2 5 mph 1022.6mb 56f
7:00pm 1 5 mph 1022.8mb 56f
6:54pm 1 3 mph 1022.9mb 56f
6:48pm 1 3 mph 1023mb 56f
6:36pm 1 3 mph 1022.9mb 56f
6:30pm 1 2 mph 1023mb 56f
6:24pm  -  2 mph 1023.1mb 56f
6:18pm  -  2 mph 1023.1mb 56f
6:12pm 2 3 mph 1023.3mb 56f
6:06pm 1 3 mph 1023.3mb 56f
6:00pm 1 3 mph 1023.3mb 56f
5:54pm 2 3 mph 1023.5mb 56f
5:48pm 3 5 mph 1023.4mb 56f
5:36pm  -  3 mph 1023.5mb 56f
5:30pm  -  2 mph 1023.4mb 56f
5:24pm  -  1 mph 1023.4mb 56f
5:18pm  -  1 mph 1023.4mb 56f
5:12pm  -  1 mph 1023.3mb 56f
5:06pm 1 2 mph 1023.3mb 56f
5:00pm 1 2 mph 1023.2mb 56f
4:54pm  -  1 mph 1023.3mb 56f
4:48pm 1 3 mph 1023.3mb 56f
4:36pm 1 3 mph 1023.4mb 56f
4:30pm 3 5 mph 1023.5mb 56f
4:24pm 2 6 mph 1023.6mb 56f
4:18pm 2 5 mph 1023.6mb 56f
4:12pm  -  2 mph 1023.6mb 56f
4:06pm  -  2 mph 1023.5mb 56f
4:00pm 1 2 mph 1023.6mb 56f
3:54pm 2 6 mph 1023.6mb 56f
3:48pm 3 5 mph 1023.6mb 56f
3:36pm 1 2 mph - -
3:30pm 1 3 mph 1023.7mb 56f
3:24pm  -  2 mph 1023.6mb 56f
3:18pm  -  3 mph 1023.4mb 56f
3:12pm  -  2 mph 1023.6mb 56f
3:06pm 2 3 mph 1023.7mb 57f
3:00pm  -  1 mph 1023.6mb 57f
2:54pm  -  1 mph 1023.6mb 57f
2:48pm  -  1 mph 1023.7mb 57f
2:36pm 1 3 mph 1024mb 57f
2:30pm  -  5 mph 1024.1mb 57f
2:24pm 3 5 mph 1024.1mb 57f
2:18pm  -  3 mph 1024.2mb 57f
2:12pm 1 2 mph - -
2:06pm 1 2 mph 1024.4mb 57f
2:00pm  -  2 mph 1024.5mb 57f
1:54pm 1 2 mph 1024.4mb 57f
1:48pm 1 2 mph 1024.3mb 57f
1:36pm  -  5 mph 1024.8mb 57f
1:30pm 3 5 mph 1025mb 57f
1:24pm 2 3 mph 1025.1mb 57f
1:18pm 1 3 mph 1025.2mb 57f
1:12pm  -  3 mph 1025.2mb 57f
1:06pm  -  2 mph 1025.2mb 57f
1:00pm  -  3 mph 1025.4mb 57f
12:54pm 3 6 mph 1025.5mb 57f
12:48pm 3 6 mph 1025.6mb 57f
12:36pm 2 5 mph 1025.6mb 57f
12:30pm 1 6 mph 1025.8mb 57f
12:24pm 2 6 mph 1025.9mb 57f
12:18pm 3 6 mph 1026mb 57f
12:12pm 2 6 mph 1026.1mb 57f
12:06pm 2 6 mph 1026.1mb 57f
12:00pm 3 8 mph 1026.4mb 57f
11:54am 3 8 mph 1026.5mb 57f
11:48am 3 8 mph 1026.6mb 57f
11:36am 5 6 mph 1026.6mb 57f
11:30am 1 5 mph 1026.7mb 57f
11:24am 2 6 mph 1026.8mb 57f
11:18am 2 3 mph 1026.7mb 57f
11:12am 2 3 mph 1026.8mb 57f
11:06am  -  2 mph 1026.8mb 57f
11:00am 1 3 mph - -
10:54am 1 2 mph 1027mb 57f
10:48am 1 3 mph 1027.1mb 57f
10:36am 1 2 mph 1027.2mb 57f
10:30am  -  3 mph 1027.2mb 57f
10:24am  -  1 mph 1027.2mb 57f
10:18am  -  2 mph 1027.2mb 57f
10:12am  -  6 mph 1027.2mb 57f
10:06am 2 3 mph 1027.3mb 57f
10:00am  -  2 mph 1027.2mb 56f
9:54am  -  2 mph 1027.2mb 56f
9:48am  -  2 mph 1027.3mb 56f
9:36am 1 2 mph 1027.3mb 56f
9:30am  -  1 mph 1027.2mb 56f
9:24am 1 2 mph 1027mb 56f
9:18am  -  2 mph 1027mb 56f
9:12am  -  1 mph 1027mb 56f
9:06am  -  2 mph 1027mb 55f
9:00am  -  1 mph 1026.9mb 55f
8:54am  -  1 mph 1026.8mb 55f
8:48am  -  2 mph 1026.7mb 55f
8:36am  -  2 mph 1026.5mb 55f
8:30am  -  1 mph 1026.5mb 55f
8:24am  -  1 mph 1026.4mb 55f
8:18am  -  3 mph 1026.4mb 55f
8:12am 1 3 mph 1026.3mb 55f
8:06am  -  2 mph 1026.3mb 55f
8:00am  -  2 mph 1026.4mb 55f
7:54am  -  1 mph 1026.4mb 55f
7:48am  -  mph 1026.5mb 56f
7:36am  -  mph 1026.5mb 56f
7:30am  -  1 mph 1026.4mb 56f
7:24am  -  mph 1026.4mb 56f
7:18am  -  mph 1026.4mb 56f
7:12am  -  1 mph 1026.5mb 56f
7:06am  -  mph 1026.5mb 56f
7:00am  -  mph 1026.6mb 56f
6:54am  -  mph 1026.6mb 56f
6:48am  -  1 mph 1026.6mb 56f
6:36am  -  1 mph 1026.4mb 56f
6:30am  -  mph 1026.5mb 56f
6:24am  -  1 mph 1026.6mb 56f
6:18am  -  mph 1026.7mb 56f
6:12am  -  mph 1026.8mb 56f
6:06am  -  mph 1026.8mb 56f
6:00am  -  mph 1026.8mb 56f
5:54am  -  1 mph 1026.7mb 56f
5:48am  -  1 mph 1026.8mb 56f
5:36am  -  1 mph 1026.7mb 56f
5:30am  -  mph 1026.6mb 56f
5:24am  -  mph 1026.6mb 56f
5:18am  -  mph 1026.6mb 56f
5:12am  -  2 mph 1026.5mb 56f
5:06am 1 2 mph 1026.6mb 56f
5:00am  -  1 mph 1026.5mb 56f
4:54am  -  1 mph 1026.4mb 56f
4:48am  -  2 mph 1026.4mb 56f
4:36am  -  2 mph 1026.4mb 56f
4:30am  -  2 mph 1026.5mb 56f
4:24am 1 3 mph 1026.6mb 56f
4:18am 2 3 mph 1026.7mb 56f
4:12am 2
mph
1026.9mb 57f
4:06am  -  1 mph 1027.1mb 57f
4:00am  -  1 mph 1027.2mb 57f
3:54am  -  1 mph 1027.3mb 57f
3:48am  -  1 mph 1027.3mb 57f
3:36am  -  2 mph 1027.1mb 57f
3:30am  -  2 mph 1027.1mb 57f
3:24am 1 2 mph 1027.2mb 57f
3:18am  -  1 mph 1027.3mb 57f
3:12am  -  2 mph 1027.3mb 57f
3:06am 1 2 mph 1027.4mb 57f
3:00am  -  mph 1027.4mb 57f
2:54am  -  mph 1027.4mb 57f
2:48am  -  1 mph 1027.4mb 57f
2:36am 2
mph
1027.2mb 57f
2:30am  -  1 mph 1027.1mb 57f
2:24am  -  1 mph 1027.1mb 57f
2:18am 1
mph
1027mb 57f
2:12am 1
mph
1027mb 57f
2:06am  -  1 mph 1027mb 57f
2:00am  -  mph 1027mb 57f
1:54am  -  1 mph 1027mb 57f
1:48am  -  mph 1027mb 57f
1:36am  -  1 mph 1027.1mb 57f
1:30am  -  1 mph 1027mb 57f
1:24am  -  1 mph 1026.9mb 57f
1:18am  -  1 mph 1026.8mb 57f
1:12am 1
mph
1026.8mb 57f
1:06am  -  1 mph 1026.8mb 57f
1:00am 1 3 mph 1026.9mb 57f
12:54am 1 2 mph 1026.9mb 57f
12:48am  -  2 mph 1026.9mb 57f
12:36am  -  2 mph 1026.9mb 57f
12:30am  -  2 mph 1026.9mb 57f
12:24am  -  2 mph 1026.8mb 57f
12:18am 1 5 mph 1026.9mb 57f
12:12am 2 3 mph 1026.9mb 57f
12:06am  -  2 mph 1027.2mb 57f
12:00am  -  1 mph 1027.3mb 57f
Mon 12/22 11:54pm  -  2 mph 1027.3mb 57f
11:48pm  -  3 mph 1027.4mb 57f
11:36pm 1 3 mph 1027.5mb 57f
11:30pm 1 3 mph 1027.6mb 57f
11:24pm  -  2 mph 1027.6mb 57f
11:18pm  -  2 mph 1027.7mb 57f
11:12pm  -  3 mph 1027.7mb 57f
11:06pm  -  2 mph 1027.7mb 57f
11:00pm  -  3 mph 1027.7mb 57f
10:54pm 3 5 mph 1027.6mb 56f
10:48pm 2 3 mph 1027.6mb 56f
10:36pm 1 6 mph 1027.5mb 56f
10:30pm 1 3 mph 1027.4mb 56f
10:24pm 3 6 mph 1027.3mb 56f
10:18pm 2 3 mph 1027.3mb 56f
10:12pm 1 5 mph 1027.3mb 55f
10:06pm 1 6 mph 1027.4mb 55f
10:00pm 1 5 mph 1027.4mb 55f
9:54pm 1 6 mph 1027.4mb 55f
9:48pm 2 6 mph 1027.5mb 55f
9:36pm 3 7 mph 1027.5mb 55f